Regional Weather Roundup
Issued by NWS

Home | Current Version | Previous Version | Text Only | Print | Product List | Glossary Off
Versions: 1 2 3 4 5 6 7 8 9 10 11 12 13 14 15 16 17 18 19 20 21 22 23 24 25 26 27 28 29 30 31 32 33 34 35 36 37 38 39 40 41 42 43 44 45 46 47 48 49 50

027
ASUS43 KLMK 291002
RWRKY
KENTUCKY REGIONAL WEATHER ROUNDUP
NATIONAL WEATHER SERVICE LOUISVILLE KY
600 AM EDT SUN MAY 29 2016

NOTE "FAIR" INDICATES FEW OR NO CLOUDS BELOW 12,000 FEET
WITH NO SIGNIFICANT WEATHER AND/OR OBSTRUCTIONS TO VISIBILITY.

KYZ001>023-026-027-061>063-070>075-291100-
WESTERN AND SOUTH CENTRAL KENTUCKY

CITY           SKY/WX    TMP DP  RH WIND       PRES   REMARKS
PADUCAH        PTCLDY    67  64  90 CALM      30.07R
HENDERSON      CLEAR     64  61  88 CALM      30.07R
OWENSBORO      CLEAR     68  67  96 CALM      30.08R
HOPKINSVILLE   NOT AVBL
BOWLING GREEN  PTCLDY    62  61  96 CALM      30.09S FOG
GLASGOW        NOT AVBL
$$

KYZ024-025-028>034-038-045-046-053-291100-
NORTH CENTRAL KENTUCKY

CITY           SKY/WX    TMP DP  RH WIND       PRES   REMARKS
LOUISVILLE/SDF CLOUDY    67  64  90 SE3       30.08R
LOUISVILLE/LOU CLOUDY    69  63  81 CALM      30.08S
FORT KNOX      CLOUDY    67  64  90 S3        30.07S
$$

KYZ035>037-039>044-047>052-055>060-089>105-291100-
NORTHEAST KENTUCKY

CITY           SKY/WX    TMP DP  RH WIND       PRES   REMARKS
LEXINGTON      MOCLDY    69  62  78 SE3       30.12R
COVINGTON      CLOUDY    68  63  84 S5        30.10R
FRANKFORT      CLOUDY    67  62  84 CALM      30.09S
$$

KYZ054-064>069-076>088-106>120-291100-
SOUTHEAST KENTUCKY

CITY           SKY/WX    TMP DP  RH WIND       PRES   REMARKS
JACKSON        PTCLDY    68  61  78 CALM      30.15R
LONDON         CLOUDY    65  62  90 CALM      30.14R
SOMERSET       NOT AVBL
MIDDLESBORO    CLOUDY    63  63  99 CALM      30.16R
MONTICELLO     CLOUDY    64  63  96 VRB7      30.14S
$$





USA.gov is the U.S. government's official web portal to all federal, state and local government web resources and services.